GW5433 Weather Reports


time (UTC)temp
C
wind
direction
speed
KPH
gust
KPH
rain 1hr
cm
rain 24hr
cm
rain mn
cm
humidity
%
barometer
mb
20260510093507 23 125 0.0 8.0 0.00 0.00 0.00 90 1011.4
20260510093020 23 155 1.6 8.0 0.00 0.00 0.00 91 1011.4
20260510092507 23 255 0.0 6.4 0.00 0.00 0.00 91 1011.5
20260510092012 23 228 0.0 4.8 0.00 0.00 0.00 91 1011.6
20260510091528 23 164 0.0 4.8 0.00 0.00 0.00 91 1011.6
20260510091011 23 41 0.0 4.8 0.00 0.00 0.00 91 1011.5
20260510090509 23 250 0.0 3.2 0.00 0.00 0.00 91 1011.5
20260510090028 23 184 0.0 3.2 0.00 0.00 0.00 91 1011.5
20260510085511 23 165 0.0 0.0 0.00 0.00 0.00 91 1011.5
20260510085003 23 203 0.0 0.0 0.00 0.00 0.00 91 1011.4
20260510084516 23 155 0.0 4.8 0.00 0.00 0.00 91 1011.4
20260510084008 23 193 0.0 8.0 0.00 0.00 0.00 92 1011.3
20260510083508 23 278 0.0 8.0 0.00 0.00 0.00 92 1011.2
20260510083018 23 233 0.0 11.3 0.00 0.00 0.00 92 1011.1
20260510082508 23 232 1.6 11.3 0.00 0.00 0.00 92 1011.1
20260510082010 23 240 1.6 8.0 0.00 0.00 0.00 92 1011.1
20260510081522 23 237 0.0 4.8 0.00 0.00 0.00 92 1011.1
20260510081006 23 212 1.6 3.2 0.00 0.00 0.00 92 1011.1
20260510080508 23 167 0.0 6.4 0.00 0.00 0.00 92 1011.1
20260510080025 23 178 1.6 6.4 0.00 0.00 0.00 92 1011.0
20260510075513 23 210 0.0 3.2 0.00 0.00 0.00 92 1011.1
20260510075009 23 229 0.0 4.8 0.00 0.00 0.00 92 1011.0
20260510074528 23 161 0.0 4.8 0.00 0.00 0.00 92 1011.1
20260510074016 23 155 0.0 4.8 0.00 0.00 0.00 92 1011.0
20260510073507 23 123 0.0 1.6 0.00 0.00 0.00 91 1011.1
20260510073018 23 136 0.0 6.4 0.00 0.00 0.00 92 1011.1
20260510072508 23 127 0.0 6.4 0.00 0.00 0.00 91 1011.1
20260510072012 23 19 0.0 1.6 0.00 0.00 0.00 91 1011.2
20260510071521 23 215 0.0 3.2 0.00 0.00 0.00 91 1011.2
20260510071005 23 179 0.0 6.4 0.00 0.00 0.00 91 1011.2
20260510070505 23 167 0.0 6.4 0.00 0.00 0.00 91 1011.2
20260510070009 23 150 0.0 4.8 0.00 0.00 0.00 91 1011.3
20260510065504 23 276 0.0 4.8 0.00 0.00 0.00 91 1011.3
20260510065006 23 264 0.0 4.8 0.00 0.00 0.00 91 1011.3
20260510064522 23 242 0.0 6.4 0.00 0.00 0.00 91 1011.4
20260510064004 23 177 0.0 6.4 0.00 0.00 0.00 91 1011.4
20260510063505 23 221 0.0 1.6 0.00 0.00 0.00 91 1011.4
20260510063014 23 165 0.0 3.2 0.00 0.00 0.00 90 1011.4
20260510062508 23 256 0.0 3.2 0.00 0.00 0.00 90 1011.4
20260510062004 23 186 0.0 4.8 0.00 0.00 0.00 90 1011.4
20260510061523 23 257 0.0 4.8 0.00 0.00 0.00 90 1011.6
20260510061008 23 181 0.0 3.2 0.00 0.00 0.00 89 1011.6
20260510060503 23 187 0.0 6.4 0.00 0.00 0.00 89 1011.6
20260510060008 23 219 0.0 6.4 0.00 0.00 0.00 89 1011.6
20260510055505 23 127 0.0 6.4 0.00 0.00 0.00 88 1011.7
20260510055004 23 145 0.0 4.8 0.00 0.00 0.00 88 1011.5
20260510054506 23 60 0.0 6.4 0.00 0.00 0.00 88 1011.4
20260510054003 23 186 0.0 6.4 0.00 0.00 0.00 88 1011.5
20260510053504 23 207 0.0 8.0 0.00 0.00 0.00 88 1011.5
20260510053018 23 236 0.0 8.0 0.00 0.00 0.00 89 1011.6
20260510052504 23 49 1.6 8.0 0.00 0.00 0.00 89 1011.6
20260510052006 24 220 1.6 6.4 0.00 0.00 0.00 89 1011.8
20260510051514 24 218 0.0 0.0 0.00 0.00 0.00 89 1011.9
20260510051004 24 139 0.0 0.0 0.00 0.00 0.00 88 1012.0
20260510050508 24 203 0.0 0.0 0.00 0.00 0.00 88 1012.2
20260510050023 24 170 0.0 0.0 0.00 0.00 0.00 88 1012.3
20260510045514 24 124 0.0 0.0 0.00 0.00 0.00 87 1012.3
20260510045005 24 133 0.0 0.0 0.00 0.00 0.00 87 1012.3
20260510044514 24 26 0.0 0.0 0.00 0.00 0.00 87 1012.2
20260510044003 24 314 0.0 0.0 0.00 0.00 0.00 86 1012.2
20260510043503 24 105 0.0 0.0 0.00 0.00 0.00 86 1012.3
20260510043008 24 121 0.0 0.0 0.00 0.00 0.00 85 1012.2
20260510042504 24 203 0.0 3.2 0.00 0.00 0.00 85 1012.1
20260510042003 24 148 0.0 3.2 0.00 0.00 0.00 84 1012.0
20260510041516 25 110 0.0 0.0 0.00 0.00 0.00 83 1012.0
20260510041004 25 106 0.0 3.2 0.00 0.00 0.00 82 1012.0
20260510040503 25 116 0.0 3.2 0.00 0.00 0.00 82 1012.0
20260510040017 25 131 0.0 0.0 0.00 0.00 0.00 80 1012.1
20260510035504 25 162 0.0 0.0 0.00 0.00 0.00 79 1012.0
20260510035008 25 224 0.0 3.2 0.00 0.00 0.00 79 1012.0
20260510034526 25 212 0.0 3.2 0.00 0.00 0.00 78 1011.9
20260510034009 25 212 0.0 3.2 0.00 0.00 0.00 78 1011.9
20260510033512 25 162 0.0 3.2 0.00 0.00 0.00 77 1012.2
20260510033007 25 179 0.0 4.8 0.00 0.00 0.00 77 1012.3
20260510032503 25 89 0.0 4.8 0.00 0.00 0.00 77 1012.2
20260510032005 25 229 0.0 6.4 0.00 0.00 0.00 76 1012.4
20260510031508 25 59 0.0 6.4 0.00 0.00 0.00 75 1012.4
20260510031003 26 146 0.0 6.4 0.00 0.00 0.00 74 1012.1
20260510030503 26 129 0.0 1.6 0.00 0.00 0.00 73 1012.1
20260510030023 26 257 0.0 4.8 0.00 0.00 0.00 72 1011.8
20260510025504 26 346 0.0 6.4 0.00 0.00 0.00 72 1011.6
20260510025006 26 167 0.0 6.4 0.00 0.00 0.00 71 1011.5
20260510024521 26 204 0.0 1.6 0.00 0.00 0.00 70 1011.4
20260510024008 26 136 0.0 6.4 0.00 0.00 0.00 69 1011.2
20260510023514 26 70 0.0 6.4 0.00 0.00 0.00 68 1011.0
20260510023022 26 174 0.0 6.4 0.00 0.00 0.00 66 1010.8
20260510022509 26 199 1.6 6.4 0.00 0.00 0.00 66 1010.7
20260510022011 26 244 0.0 4.8 0.00 0.00 0.00 66 1010.7
20260510021517 27 48 0.0 3.2 0.00 0.00 0.00 64 1010.7
20260510021003 27 212 0.0 3.2 0.00 0.00 0.00 63 1010.3
20260510020504 27 222 0.0 3.2 0.00 0.00 0.00 62 1010.1
20260510020012 27 92 0.0 1.6 0.00 0.00 0.00 62 1009.9
20260510015507 27 156 0.0 1.6 0.00 0.00 0.00 62 1009.9
20260510015004 27 137 0.0 1.6 0.00 0.00 0.00 61 1010.0
20260510014518 27 76 0.0 1.6 0.00 0.00 0.00 60 1009.8
20260510014005 27 301 0.0 4.8 0.00 0.00 0.00 59 1009.7
20260510013505 27 228 0.0 4.8 0.00 0.00 0.00 59 1009.3
20260510013021 28 251 0.0 6.4 0.00 0.00 0.00 58 1009.3
20260510012509 28 219 0.0 8.0 0.00 0.00 0.00 57 1009.2
20260510012009 28 259 1.6 9.7 0.00 0.00 0.00 57 1009.2
20260510011524 28 201 3.2 9.7 0.00 0.00 0.00 57 1008.8
20260510011008 28 246 0.0 6.4 0.00 0.00 0.00 58 1008.9
20260510010510 28 113 1.6 11.3 0.00 0.00 0.00 58 1008.6
20260510010010 28 184 1.6 11.3 0.00 0.00 0.00 61 1008.5
20260510005504 28 129 3.2 8.0 0.00 0.00 0.00 63 1008.6
20260510005003 28 174 0.0 1.6 0.00 0.00 0.00 59 1008.9
20260510004516 28 210 0.0 0.0 0.00 0.00 0.00 64 1008.8
20260510004009 28 148 0.0 0.0 0.00 0.00 0.00 64 1008.9
20260510003507 29 148 0.0 0.0 0.00 0.00 0.00 63 1009.0
20260510003020 29 148 0.0 0.0 0.00 0.00 0.00 63 1008.9
20260510002507 29 148 0.0 0.0 0.00 0.00 0.00 62 1008.7
20260510002007 29 148 0.0 0.0 0.00 0.00 0.00 62 1008.6
20260510001524 30 148 0.0 0.0 0.00 0.00 0.00 60 1008.6
20260510001008 30 149 0.0 0.0 0.00 0.00 0.00 60 1008.5
20260510000508 30 140 0.0 0.0 0.00 0.00 0.00 59 1008.6
20260510000032 30 140 0.0 0.0 0.00 0.00 0.00 59 1008.7
20260509235506 30 141 0.0 0.0 0.00 0.00 0.00 58 1008.3
20260509235009 30 251 0.0 0.0 0.00 0.00 0.00 57 1008.3
20260509234523 30 129 0.0 0.0 0.00 0.00 0.00 57 1008.2
20260509234003 30 148 0.0 1.6 0.00 0.00 0.00 56 1008.1
20260509233503 30 210 0.0 1.6 0.00 0.00 0.00 56 1008.1
20260509233014 30 214 0.0 0.0 0.00 0.00 0.00 55 1008.3
20260509232508 30 197 0.0 0.0 0.00 0.00 0.00 56 1008.4
20260509232012 31 181 0.0 0.0 0.00 0.00 0.00 55 1008.3
20260509231520 31 252 0.0 4.8 0.00 0.00 0.00 54 1008.4
20260509231007 31 168 0.0 4.8 0.00 0.00 0.00 53 1008.5
20260509230508 31 155 0.0 3.2 0.00 0.00 0.00 51 1008.4
20260509230025 31 167 0.0 3.2 0.00 0.00 0.00 54 1008.2
20260509225508 32 181 0.0 3.2 0.00 0.00 0.00 53 1008.1
20260509225007 32 210 0.0 3.2 0.00 0.00 0.00 52 1008.1
20260509224537 32 224 0.0 3.2 0.00 0.00 0.00 52 1008.1
20260509224008 32 148 0.0 6.4 0.00 0.00 0.00 52 1008.1
20260509223513 32 187 1.6 6.4 0.00 0.00 0.00 52 1007.9
20260509223012 32 225 0.0 6.4 0.00 0.00 0.00 53 1007.9
20260509222506 32 243 1.6 6.4 0.00 0.00 0.00 51 1007.9
20260509222005 32 224 1.6 6.4 0.00 0.00 0.00 51 1008.1
20260509221516 33 250 1.6 6.4 0.00 0.00 0.00 51 1008.1
20260509221004 33 174 0.0 4.8 0.00 0.00 0.00 52 1008.0
20260509220510 33 223 1.6 4.8 0.00 0.00 0.00 51 1008.0
20260509220019 33 229 1.6 6.4 0.00 0.00 0.00 48 1008.0
20260509215512 33 200 1.6 6.4 0.00 0.00 0.00 44 1008.0
20260509215009 33 224 0.0 6.4 0.00 0.00 0.00 46 1008.0
20260509214526 33 284 1.6 6.4 0.00 0.00 0.00 45 1008.1
20260509214008 33 254 0.0 3.2 0.00 0.00 0.00 45 1008.0
20260509213508 34 212 0.0 1.6 0.00 0.00 0.00 44 1008.0
20260509213028 34 235 0.0 4.8 0.00 0.00 0.00 45 1007.9
20260509212508 33 153 0.0 6.4 0.00 0.00 0.00 46 1007.9
20260509212009 33 240 0.0 6.4 0.00 0.00 0.00 47 1007.9
20260509211526 33 240 0.0 6.4 0.00 0.00 0.00 46 1008.0
20260509211004 34 273 0.0 6.4 0.00 0.00 0.00 46 1008.1
20260509210504 33 155 1.6 6.4 0.00 0.00 0.00 47 1008.1
20260509210018 33 268 0.0 3.2 0.00 0.00 0.00 45 1008.1
20260509205504 33 238 0.0 3.2 0.00 0.00 0.00 48 1008.2
20260509205008 33 254 0.0 1.6 0.00 0.00 0.00 47 1008.3
20260509204524 33 167 0.0 4.8 0.00 0.00 0.00 51 1008.3
20260509204009 33 214 1.6 4.8 0.00 0.00 0.00 49 1008.4
20260509203510 33 214 0.0 3.2 0.00 0.00 0.00 49 1008.5
20260509203029 33 195 0.0 6.4 0.00 0.00 0.00 50 1008.6
20260509202510 33 74 1.6 6.4 0.00 0.00 0.00 49 1008.6
20260509202015 33 314 0.0 6.4 0.00 0.00 0.00 55 1008.7
20260509201528 33 119 0.0 3.2 0.00 0.00 0.00 50 1008.7
20260509201011 33 148 0.0 1.6 0.00 0.00 0.00 53 1008.8
20260509200510 33 225 0.0 1.6 0.00 0.00 0.00 51 1008.9
20260509200029 33 165 0.0 1.6 0.00 0.00 0.00 51 1009.1
20260509195509 32 261 0.0 3.2 0.00 0.00 0.00 52 1008.9
20260509195005 32 245 0.0 3.2 0.00 0.00 0.00 52 1008.9
20260509194522 32 323 0.0 1.6 0.00 0.00 0.00 51 1009.0
20260509194011 32 264 0.0 3.2 0.00 0.00 0.00 51 1009.1
20260509193502 33 136 0.0 3.2 0.00 0.00 0.00 50 1009.2
20260509193008 32 168 0.0 3.2 0.00 0.00 0.00 52 1009.2
20260509192502 32 223 0.0 3.2 0.00 0.00 0.00 50 1009.4
20260509192002 32 155 0.0 0.0 0.00 0.00 0.00 54 1009.3
20260509191508 31 269 0.0 4.8 0.00 0.00 0.00 53 1009.3
20260509191003 31 171 0.0 4.8 0.00 0.00 0.00 53 1009.2
20260509190503 32 232 0.0 4.8 0.00 0.00 0.00 55 1009.3
20260509190012 32 207 0.0 1.6 0.00 0.00 0.00 57 1009.2
20260509185503 31 198 0.0 3.2 0.00 0.00 0.00 57 1009.3
20260509185008 31 309 0.0 3.2 0.00 0.03 0.00 58 1009.3
20260509184524 32 221 0.0 0.0 0.00 0.03 0.00 56 1009.4
20260509184007 32 357 0.0 0.0 0.00 0.03 0.00 59 1009.4
20260509183506 32 79 0.0 0.0 0.00 0.03 0.00 59 1009.6
20260509183020 32 289 0.0 0.0 0.00 0.05 0.00 62 1009.7
20260509182509 31 219 0.0 0.0 0.00 0.05 0.00 61 1009.7
20260509182003 31 255 0.0 3.2 0.00 0.05 0.00 60 1009.8
20260509181504 31 248 0.0 3.2 0.00 0.05 0.00 59 1009.8
20260509181003 31 166 0.0 0.0 0.00 0.05 0.00 61 1009.8
20260509180504 31 207 0.0 0.0 0.00 0.05 0.00 61 1010.0
20260509180010 31 315 0.0 0.0 0.00 0.05 0.00 66 1010.1
20260509175502 31 217 0.0 0.0 0.00 0.05 0.00 65 1010.3
20260509175002 30 224 0.0 3.2 0.00 0.05 0.00 67 1010.5
20260509174514 30 130 0.0 4.8 0.00 0.05 0.00 69 1010.6
20260509174005 30 343 0.0 4.8 0.00 0.05 0.00 71 1010.8
20260509173508 30 238 0.0 3.2 0.00 0.05 0.00 69 1010.9
20260509173019 30 244 0.0 3.2 0.00 0.05 0.00 71 1011.0
20260509172508 29 193 0.0 3.2 0.00 0.05 0.00 71 1011.1
20260509172005 28 226 0.0 1.6 0.00 0.05 0.00 74 1011.0
20260509171520 28 229 0.0 4.8 0.00 0.05 0.00 78 1011.1
20260509171007 28 256 1.6 4.8 0.00 0.05 0.00 77 1011.1
20260509170505 27 145 0.0 0.0 0.00 0.05 0.00 80 1011.0
20260509170005 27 144 0.0 0.0 0.00 0.05 0.00 81 1011.1
20260509165502 27 241 0.0 0.0 0.00 0.05 0.00 81 1011.1
20260509165002 27 147 0.0 0.0 0.00 0.05 0.00 81 1011.2
20260509164512 27 148 0.0 0.0 0.00 0.05 0.00 80 1011.2
20260509164006 27 259 0.0 0.0 0.00 0.05 0.00 80 1011.2
20260509163505 27 269 0.0 0.0 0.00 0.05 0.00 81 1011.2
20260509163021 27 160 0.0 0.0 0.00 0.05 0.00 80 1011.1
20260509162511 27 160 0.0 0.0 0.00 0.05 0.00 80 1010.9
20260509162005 27 134 0.0 0.0 0.00 0.05 0.00 82 1011.0
20260509161520 27 134 0.0 0.0 0.00 0.05 0.00 83 1010.9
20260509161011 27 134 0.0 0.0 0.00 0.05 0.00 84 1010.9
20260509160508 26 134 0.0 0.0 0.00 0.05 0.00 83 1010.8
20260509160025 26 134 0.0 1.6 0.00 0.05 0.00 84 1010.7
20260509155510 26 134 0.0 1.6 0.00 0.05 0.00 83 1010.9
20260509155003 26 189 0.0 0.0 0.00 0.05 0.00 85 1010.9
20260509154513 26 189 0.0 0.0 0.00 0.05 0.00 85 1010.7
20260509154003 26 188 0.0 0.0 0.00 0.05 0.00 86 1010.8
20260509153502 26 188 0.0 0.0 0.00 0.05 0.00 86 1010.7
20260509153012 26 172 0.0 0.0 0.00 0.05 0.00 87 1010.6
20260509152506 26 172 0.0 0.0 0.00 0.05 0.00 87 1010.6
20260509152006 25 167 0.0 0.0 0.00 0.05 0.00 88 1010.6
20260509151518 25 167 0.0 0.0 0.00 0.05 0.00 88 1010.4
20260509151008 25 167 0.0 0.0 0.00 0.05 0.00 89 1010.4
20260509150512 25 167 0.0 0.0 0.00 0.05 0.00 90 1010.4
20260509150024 25 141 0.0 0.0 0.00 0.05 0.00 90 1010.4
20260509145507 25 183 0.0 3.2 0.00 0.05 0.00 91 1010.4
20260509145007 25 155 0.0 3.2 0.00 0.05 0.00 91 1010.4
20260509144522 25 218 0.0 3.2 0.00 0.05 0.00 91 1010.5
20260509144010 24 248 0.0 3.2 0.00 0.05 0.00 91 1010.4
20260509143503 24 219 0.0 0.0 0.00 0.05 0.00 92 1010.3
20260509143012 24 219 0.0 0.0 0.00 0.05 0.00 92 1010.2
20260509142504 24 219 0.0 0.0 0.00 0.05 0.00 92 1010.1
20260509142010 24 219 0.0 0.0 0.00 0.05 0.00 92 1010.0
20260509141533 24 221 0.0 0.0 0.00 0.05 0.00 92 1010.0
20260509141006 24 166 0.0 0.0 0.00 0.05 0.00 92 1009.9
20260509140507 24 166 0.0 0.0 0.00 0.05 0.00 93 1009.8
20260509140019 24 165 0.0 0.0 0.00 0.05 0.00 93 1009.8
20260509135510 24 165 0.0 0.0 0.00 0.05 0.00 93 1010.0
20260509135009 24 165 0.0 0.0 0.00 0.08 0.00 93 1010.0
20260509134530 24 165 0.0 0.0 0.00 0.08 0.00 94 1010.1
20260509134009 24 186 0.0 0.0 0.00 0.08 0.00 94 1010.6
20260509133509 23 186 0.0 0.0 0.00 0.08 0.00 94 1010.7
20260509133027 23 186 0.0 0.0 0.00 0.08 0.00 94 1010.6
20260509132513 23 307 0.0 0.0 0.00 0.10 0.00 94 1010.9
20260509132010 23 311 0.0 0.0 0.00 0.13 0.00 94 1011.3
20260509131529 23 331 0.0 0.0 0.00 0.13 0.00 94 1011.3
20260509131015 23 79 0.0 0.0 0.00 0.13 0.00 94 1011.2
20260509130511 23 153 0.0 0.0 0.00 0.13 0.00 95 1010.9
20260509130026 23 153 0.0 0.0 0.00 0.13 0.00 95 1010.8
20260509125510 23 153 0.0 0.0 0.00 0.13 0.00 94 1010.9
20260509125004 23 154 0.0 0.0 0.00 0.13 0.00 95 1010.9
20260509124521 23 154 0.0 0.0 0.00 0.13 0.00 95 1010.8
20260509124008 23 154 0.0 0.0 0.00 0.13 0.00 94 1010.8
20260509123509 23 158 0.0 0.0 0.00 0.13 0.00 94 1010.7
20260509123024 23 162 0.0 0.0 0.00 0.13 0.00 95 1010.8
20260509122510 23 185 0.0 0.0 0.00 0.13 0.00 95 1010.9
20260509122010 23 186 0.0 0.0 0.00 0.13 0.00 94 1010.9
20260509121530 23 186 0.0 0.0 0.00 0.13 0.00 94 1010.9
20260509121008 23 186 0.0 0.0 0.00 0.13 0.00 94 1010.7
20260509120509 23 219 0.0 0.0 0.00 0.13 0.00 95 1010.6
20260509120026 23 219 0.0 0.0 0.00 0.13 0.00 94 1010.7
20260509115511 23 219 0.0 0.0 0.00 0.13 0.00 94 1010.4
20260509115007 23 219 0.0 0.0 0.00 0.13 0.00 94 1010.4
20260509114533 23 219 0.0 0.0 0.00 0.13 0.00 94 1010.6
20260509114013 23 219 0.0 0.0 0.00 0.13 0.00 94 1010.5
20260509113510 23 219 0.0 0.0 0.00 0.13 0.00 94 1010.5
20260509113024 23 219 0.0 0.0 0.00 0.13 0.00 94 1010.3
20260509112510 23 219 0.0 0.0 0.00 0.13 0.00 94 1010.2
20260509112013 23 219 0.0 0.0 0.00 0.13 0.00 94 1010.3
20260509111523 23 219 0.0 0.0 0.00 0.13 0.00 94 1010.2
20260509111011 23 219 0.0 0.0 0.00 0.13 0.00 94 1010.2
20260509110511 23 219 0.0 0.0 0.00 0.13 0.00 94 1010.3
20260509110026 23 219 0.0 0.0 0.00 0.13 0.00 94 1010.2
20260509105506 23 219 0.0 0.0 0.00 0.13 0.00 94 1010.1
20260509105004 23 219 0.0 0.0 0.00 0.13 0.00 94 1009.9
20260509104515 23 219 0.0 0.0 0.00 0.13 0.00 94 1010.1
20260509104004 23 219 0.0 0.0 0.00 0.13 0.00 94 1010.1
20260509103505 23 219 0.0 0.0 0.00 0.13 0.00 94 1010.1
20260509103004 23 219 0.0 0.0 0.00 0.13 0.00 94 1010.1
20260509102502 23 219 0.0 0.0 0.00 0.13 0.00 94 1010.0
20260509102003 23 219 0.0 0.0 0.00 0.13 0.00 94 1010.0
20260509101513 23 219 0.0 0.0 0.00 0.13 0.00 94 1010.0
20260509101002 23 219 0.0 0.0 0.00 0.13 0.00 94 1010.0
20260509100502 23 219 0.0 0.0 0.00 0.13 0.00 94 1009.9
20260509100009 23 219 0.0 0.0 0.00 0.13 0.00 94 1009.9
20260509095505 23 219 0.0 0.0 0.00 0.13 0.00 94 1010.1
20260509095003 23 219 0.0 0.0 0.00 0.13 0.00 94 1009.7
20260509094517 23 219 0.0 0.0 0.00 0.13 0.00 94 1009.7
20260509094004 23 219 0.0 0.0 0.00 0.13 0.00 94 1009.7